EHI
10 11 12 11 9 9 11 11 10 10 9 8 7 5 5 7 8 6 6 10 13 13 13 13 12 11 10 10 9 8 6 5 4 4 3 2 1 0 0 0 0 0 0
13 12 12 12 10 9 10 10 10 9 9 8 7 5 5 6 6 5 6 9 12 13 13 13 13 12 11 10 10 9 7 6 6 5 5 4 2 0 0 0 0 0 0
17 16 14 12 11 11 11 9 8 8 7 6 6 6 6 5 4 4 6 9 11 12 12 13 13 12 12 11 11 10 9 7 6 6 7 7 5 2 0 0 0 0 0
21 20 15 10 10 11 11 9 8 7 6 5 6 7 7 6 5 5 7 10 12 12 12 14 15 13 12 13 13 12 10 9 8 7 7 7 6 4 1 0 1 0 0
21 19 15 10 9 10 10 10 10 9 6 5 5 7 9 9 8 8 9 12 13 14 14 15 16 14 13 14 15 14 13 12 11 9 8 7 6 5 2 1 0 0 0
16 16 14 12 10 9 10 13 13 12 10 6 4 6 9 11 12 11 11 13 14 16 17 18 17 15 13 15 17 17 16 16 15 13 10 8 7 7 4 2 1 0 0
12 12 12 12 11 10 12 14 15 15 13 9 6 6 7 9 9 10 11 12 14 17 19 20 20 18 16 15 16 17 17 17 17 16 13 9 8 8 6 5 3 1 0
11 12 13 13 11 11 14 15 16 16 14 10 9 7 5 5 5 8 11 12 13 17 19 20 21 20 18 15 14 14 14 16 18 16 12 9 7 7 6 5 4 2 1
14 14 15 15 13 12 15 16 17 16 13 11 11 10 7 5 5 7 10 11 13 15 17 17 18 18 18 18 16 13 11 14 16 15 11 9 8 7 5 4 3 2 2
19 18 19 20 18 16 17 17 17 17 16 15 14 12 10 8 7 6 7 8 10 12 13 12 13 15 18 19 17 12 9 10 13 13 12 11 11 8 6 4 3 1 1
24 23 24 26 24 22 21 20 19 20 20 18 16 14 13 11 9 6 6 6 7 8 9 9 10 13 17 18 15 11 7 6 7 9 10 11 11 10 7 5 3 1 1
25 25 26 28 28 27 26 26 25 24 22 19 16 15 14 12 10 8 6 5 4 4 6 9 11 13 15 14 11 8 6 4 3 4 4 7 9 10 7 5 3 2 2
26 26 27 28 29 30 30 30 29 27 25 21 16 14 14 12 10 9 7 4 3 3 5 8 11 12 12 11 8 5 4 3 1 1 1 2 5 7 6 4 3 2 1
27 30 32 31 30 30 30 30 29 29 28 24 18 15 14 13 11 10 8 6 4 5 6 9 10 10 11 10 6 3 3 2 0 0 0 1 2 4 4 3 1 1 0
29 32 35 33 30 28 28 28 29 28 27 23 18 16 16 16 14 11 10 8 7 7 8 9 9 8 9 9 5 4 4 1 0 0 0 0 1 2 2 2 1 0 0
36 36 36 34 31 28 27 28 27 25 23 20 17 16 17 15 13 12 11 10 8 7 8 7 7 6 7 6 5 4 3 1 0 0 0 0 0 1 1 1 0 0 0
43 42 40 37 33 29 29 29 27 24 21 19 18 17 15 12 10 11 12 10 8 6 6 6 5 6 5 4 3 2 1 0 0 0 0 0 0 0 0 0 0 0 0
46 45 43 39 34 30 30 30 28 26 22 19 18 17 16 13 11 11 11 10 8 7 6 6 7 7 6 4 2 1 0 0 0 0 0 0 0 0 0 0 0 0 0
45 45 43 39 34 30 29 27 27 25 21 17 15 16 17 17 14 12 11 10 9 8 8 8 8 8 6 4 2 1 1 1 1 0 0 0 0 0 0 0 0 0 0
43 43 41 37 32 27 25 25 24 23 19 14 14 17 18 18 16 12 10 10 9 9 9 8 7 7 7 6 3 1 2 3 2 0 0 0 0 0 0 0 0 0 0
39 40 37 32 26 21 20 21 22 22 19 16 17 18 17 14 12 9 7 7 8 7 7 7 7 7 8 7 4 1 1 1 1 0 0 0 0 0 0 0 0 0 0
34 34 32 28 23 17 14 15 17 20 20 18 19 19 15 10 7 5 4 3 4 5 5 6 7 7 8 8 5 2 1 0 0 0 0 0 0 0 0 1 0 0 0
30 29 29 28 24 18 11 8 10 16 19 19 20 20 16 12 9 7 5 3 2 2 2 3 6 8 8 8 6 4 3 2 2 1 0 0 0 0 0 0 0 0 0
28 27 26 27 26 19 10 5 5 11 17 20 22 22 20 18 14 11 8 6 4 2 1 1 3 6 6 5 4 5 5 4 4 3 2 1 0 0 0 0 0 0 0
27 27 25 24 23 19 10 4 3 9 16 21 24 24 23 20 15 11 10 9 7 4 2 1 1 3 3 3 3 4 4 4 4 3 3 2 1 0 0 0 1 1 0
27 26 22 20 22 20 11 3 3 10 17 20 22 23 22 19 12 9 11 11 8 5 3 2 1 1 1 1 2 3 3 3 3 2 3 3 2 1 0 1 2 2 1
Wind_Speed
2 3 2 2 2 2 3 2 2 2 1 1 1 2 3 4 4 5 4 9 8 7 7 6 6 6 6 5 5 5 5 5 4 4 4 5 5 5 5 5 6 6 6
3 3 2 2 1 2 2 3 3 2 1 1 1 1 2 3 3 5 5 6 7 7 7 6 6 6 6 6 5 5 5 4 4 4 5 5 5 5 5 5 5 6 6
3 3 3 3 2 2 3 2 2 2 2 2 1 1 1 2 2 3 4 4 5 6 7 7 6 6 6 6 6 5 5 4 4 4 4 4 5 5 6 6 6 6 6
4 3 3 3 3 3 3 3 2 2 1 1 1 1 1 1 2 3 3 3 4 4 6 7 7 6 6 6 6 6 5 5 4 4 4 4 4 5 5 6 6 6 6
4 3 3 3 3 2 3 3 3 3 3 2 2 2 1 1 2 2 3 3 3 4 4 6 7 7 6 6 6 6 6 5 5 5 5 5 5 5 5 5 5 5 6
3 3 3 3 3 2 2 2 3 2 2 2 2 2 1 2 2 2 3 3 3 4 4 5 5 5 7 6 6 5 5 5 5 5 5 5 5 5 5 6 6 6 6
3 3 2 3 3 2 3 4 3 3 3 2 2 2 1 2 2 2 3 3 3 4 4 4 4 4 4 7 6 5 5 6 5 5 5 5 5 5 5 6 6 7 7
2 3 3 2 3 2 3 3 3 2 2 2 2 2 1 1 1 2 2 3 3 3 3 5 3 3 3 4 4 7 6 5 5 5 5 4 4 4 5 6 6 7 7
2 2 3 3 3 3 3 3 3 3 2 2 2 2 1 2 1 0 1 1 2 2 2 2 3 3 3 3 4 6 6 5 5 5 4 4 4 4 5 5 6 6 7
3 4 3 2 2 2 2 3 3 2 3 2 2 2 2 2 2 1 1 1 1 1 1 1 1 2 3 3 4 5 7 5 4 4 3 3 3 3 3 4 5 5 5
3 4 4 3 2 2 2 2 1 2 2 2 2 1 1 1 2 2 2 1 1 1 1 1 1 1 2 2 3 4 6 5 4 4 3 3 3 3 3 4 5 5 5
3 4 4 3 3 3 3 3 2 3 2 2 2 1 1 1 1 2 2 2 2 2 2 2 2 2 2 2 3 5 5 4 4 4 4 4 3 3 3 3 4 5 5
3 3 3 3 3 3 3 3 3 3 2 2 2 2 2 1 1 1 2 2 1 1 2 2 2 2 2 2 3 5 5 5 5 4 4 4 3 3 3 3 3 4 4
3 3 4 4 3 3 3 3 3 3 3 3 3 2 2 1 1 1 1 2 1 2 2 2 2 2 2 3 3 4 3 5 4 4 4 4 3 3 3 2 2 2 3
2 3 3 3 3 3 3 3 2 2 2 2 2 2 2 1 1 1 1 2 2 2 2 2 1 2 2 2 4 3 3 5 5 4 4 4 4 3 3 2 2 2 2
1 2 2 2 2 2 3 2 2 2 2 2 2 2 1 1 1 1 1 2 2 2 2 1 1 2 2 2 4 2 2 5 5 6 6 5 5 4 3 3 3 2 2
2 1 2 2 2 2 2 2 2 2 2 2 2 2 1 1 1 1 1 1 1 1 1 1 1 2 1 2 2 2 3 3 3 6 7 6 6 5 4 4 4 3 3
2 2 2 2 2 2 2 2 2 1 1 2 1 1 1 1 0 1 1 2 1 1 2 2 1 1 2 3 3 2 2 3 3 6 7 7 6 6 5 5 5 4 4
2 2 2 2 1 1 1 1 1 1 1 1 1 1 1 0 1 1 2 2 1 1 1 2 2 2 2 2 2 2 2 1 2 5 7 7 7 7 7 6 6 5 5
2 3 3 2 2 2 1 1 1 1 1 1 1 1 1 1 1 2 2 1 1 2 1 1 2 2 2 2 2 1 1 1 1 2 3 4 6 7 8 7 7 7 6
3 2 2 2 2 2 1 1 1 2 1 1 1 1 1 1 2 1 1 1 1 1 1 1 1 1 1 2 1 1 1 1 2 2 1 2 3 3 5 7 7 8 8
2 2 2 1 1 1 1 2 0 1 1 1 1 1 1 2 3 2 2 2 0 1 1 1 1 1 1 2 1 2 1 1 2 2 1 2 2 3 4 4 7 9 9
2 2 1 1 1 1 1 2 1 1 1 1 1 1 2 1 3 2 1 1 0 2 2 2 2 2 2 2 3 3 2 3 3 2 2 3 2 3 2 4 9 9 10
3 2 2 2 1 2 2 2 1 2 2 2 2 2 1 1 2 2 1 1 2 2 3 3 2 2 1 1 2 3 3 3 3 2 2 3 2 2 1 2 8 10 10
3 3 3 2 2 1 2 2 2 2 2 3 3 2 2 2 2 3 2 2 2 2 2 1 0 1 2 3 3 2 2 2 3 3 2 2 2 1 1 2 4 8 9
3 3 2 2 2 2 3 3 3 2 2 3 2 2 3 3 3 3 2 2 2 2 2 1 1 3 3 4 6 5 4 3 3 3 2 2 2 1 2 1 2 3 5
Wind_Direction
127 121 117 124 136 131 139 146 147 137 140 133 121 136 112 112 121 123 126 136 137 143 149 154 159 164 168 173 179 179 181 190 199 203 201 204 204 200 193 191 196 198 200
135 139 135 137 149 144 140 144 143 126 96 91 96 99 100 115 122 128 131 139 146 153 159 163 167 172 177 181 183 183 190 196 196 198 201 204 204 202 205 206 204 203 201
147 150 153 159 166 143 130 131 125 117 147 153 157 139 123 122 133 127 134 146 154 163 167 167 170 176 182 185 185 186 189 191 189 192 199 201 201 206 211 209 207 206 208
156 158 162 161 160 153 147 147 156 153 146 154 146 132 140 135 140 139 148 153 158 162 171 172 173 176 181 184 188 188 189 191 191 193 195 198 204 209 211 212 212 210 212
161 162 160 157 159 161 163 169 157 158 161 156 149 161 173 154 153 166 170 160 161 159 162 168 173 173 177 181 185 190 189 189 193 200 207 215 215 211 212 212 213 211 210
155 158 156 161 164 157 154 146 150 151 156 171 174 154 168 182 175 180 178 160 174 177 175 166 171 183 187 185 186 193 198 200 205 208 212 219 218 214 213 214 215 216 215
151 156 149 154 156 155 162 162 159 163 173 164 155 156 181 197 191 193 185 171 180 180 173 164 169 173 181 191 193 196 204 208 205 208 213 220 223 221 218 221 222 220 219
163 159 162 169 158 153 160 162 168 170 179 177 175 157 176 175 258 205 179 179 184 180 173 177 175 174 176 166 183 197 207 214 214 218 219 221 224 226 228 229 226 223 221
155 140 156 161 162 168 170 177 186 178 189 200 201 193 190 182 182 216 218 190 174 180 184 166 167 170 186 159 166 188 198 205 211 218 221 224 224 225 226 227 228 227 223
163 157 166 159 159 156 172 190 185 195 193 209 210 214 218 175 172 171 202 189 181 187 191 193 163 172 170 147 141 151 171 181 196 210 215 222 222 214 213 220 226 225 218
169 167 168 164 169 166 174 190 170 203 208 228 226 208 215 211 199 170 186 192 195 198 184 179 165 175 150 154 144 136 155 171 184 201 211 219 219 213 214 221 227 228 221
174 177 173 177 179 171 183 189 196 204 218 247 256 245 225 215 206 182 188 196 195 198 186 185 180 185 156 121 122 130 149 165 175 196 205 209 210 211 211 221 227 226 224
174 181 176 177 179 177 185 181 194 215 216 234 245 258 264 261 246 185 176 196 204 203 188 201 195 177 150 137 145 144 158 173 172 182 196 201 206 210 210 225 232 230 226
166 170 171 174 178 181 186 183 198 208 210 228 242 248 268 274 284 194 196 181 203 232 208 206 166 154 154 145 153 161 165 174 178 185 194 194 198 198 203 212 227 231 226
166 163 169 168 173 175 179 183 209 221 209 214 239 240 254 242 262 254 217 194 193 223 231 199 175 165 163 139 165 176 163 175 181 192 199 195 191 187 189 192 197 194 200
117 141 151 160 173 179 184 193 210 221 218 222 218 223 254 247 219 236 241 242 225 209 227 198 175 150 148 160 169 175 169 168 181 187 191 190 186 188 189 186 186 187 183
154 161 149 160 187 185 188 202 218 213 209 231 236 203 226 249 269 274 250 237 229 209 222 223 131 135 149 149 152 159 173 170 175 181 181 184 187 189 192 191 191 190 187
173 167 158 177 198 190 206 216 227 205 207 215 232 217 232 230 236 290 290 276 247 220 200 211 181 174 178 167 173 200 201 187 177 179 181 188 191 196 198 197 196 191 189
176 168 165 176 191 178 172 192 215 216 242 229 227 225 232 229 255 275 283 295 283 270 213 205 209 179 177 186 175 210 234 184 192 177 186 195 199 196 198 202 199 192 191
181 185 179 179 183 178 182 183 184 208 230 253 233 232 236 220 227 258 261 266 282 292 261 226 207 182 176 178 165 196 227 211 219 207 188 187 198 199 200 204 201 195 194
201 180 173 179 184 188 201 178 190 198 202 231 247 221 244 78 81 53 310 359 320 293 279 246 224 172 149 153 189 229 229 216 226 219 196 193 190 203 205 211 208 203 198
186 172 180 186 201 208 112 94 108 214 203 223 244 231 193 152 117 99 80 73 41 260 296 280 243 204 189 178 188 229 234 241 257 218 212 243 208 210 202 197 200 201 202
177 178 190 183 180 155 121 119 153 227 220 215 225 238 248 166 129 123 144 186 248 244 236 253 272 258 215 187 195 225 231 240 255 238 226 251 236 233 218 195 186 193 199
179 183 197 187 185 197 167 155 215 227 233 237 233 228 219 151 174 163 209 223 245 248 237 233 247 259 250 200 205 223 237 242 253 254 220 249 245 238 229 185 190 190 195
186 195 197 187 188 183 183 187 220 235 224 242 239 222 192 186 188 185 204 230 253 268 273 308 272 233 228 218 209 217 235 237 256 251 220 234 252 248 227 203 199 194 196
198 196 197 196 194 190 191 196 215 245 247 242 227 212 199 200 195 188 213 225 245 263 263 257 273 254 234 225 217 212 222 236 255 259 215 212 243 230 260 239 193 191 202